CEB962 RPMD-RPLL

Flight info

Callsign CEB962
Flight time N/A
Altitude 36000
Route ANKIN3R ANKIN B473 LAIYA LAIYA1A
Aircraft A320/M-SDE3FGHIRWY/LB1

Departure

Time 2026-05-01 11:04
Airport Francisco Bangoy International Airport (RPMD)

Arrival

Time N/A
Airport Ninoy Aquino International Airport (RPLL)
Time Latitude Longitude Altitude Speed Heading
2026-05-01 10:39 7.13035 125.64647 102 ft 0 kts 321°
2026-05-01 10:52 7.13032 125.64650 101 ft 4 kts 319°
2026-05-01 10:52 7.13012 125.64669 101 ft 4 kts 306°
2026-05-01 10:53 7.12998 125.64692 101 ft 4 kts 291°
2026-05-01 10:53 7.12991 125.64718 101 ft 4 kts 272°
2026-05-01 10:53 7.12995 125.64744 101 ft 3 kts 236°
2026-05-01 10:53 7.12998 125.64748 101 ft 0 kts 230°
2026-05-01 10:56 7.12996 125.64746 101 ft 2 kts 230°
2026-05-01 10:56 7.12983 125.64730 101 ft 4 kts 229°
2026-05-01 10:56 7.12956 125.64699 99 ft 7 kts 229°
2026-05-01 10:56 7.12917 125.64654 101 ft 10 kts 230°
2026-05-01 10:57 7.12866 125.64595 101 ft 12 kts 229°
2026-05-01 10:57 7.12806 125.64524 100 ft 13 kts 228°
2026-05-01 10:57 7.12747 125.64458 101 ft 12 kts 229°
2026-05-01 10:57 7.12690 125.64448 100 ft 8 kts 135°
2026-05-01 10:58 7.12660 125.64478 100 ft 4 kts 138°
2026-05-01 10:58 7.12645 125.64490 101 ft 1 kts 142°
2026-05-01 10:59 7.12642 125.64493 101 ft 3 kts 142°
2026-05-01 10:59 7.12599 125.64526 101 ft 12 kts 142°
2026-05-01 10:59 7.12525 125.64550 100 ft 10 kts 210°
2026-05-01 11:00 7.12484 125.64499 99 ft 11 kts 230°
2026-05-01 11:00 7.12429 125.64433 100 ft 14 kts 230°
2026-05-01 11:00 7.12360 125.64350 100 ft 17 kts 229°
2026-05-01 11:00 7.12278 125.64255 100 ft 20 kts 229°
2026-05-01 11:01 7.12169 125.64133 102 ft 25 kts 227°
2026-05-01 11:01 7.12058 125.64006 102 ft 24 kts 230°
2026-05-01 11:01 7.11952 125.63878 102 ft 23 kts 230°
2026-05-01 11:01 7.11848 125.63760 101 ft 22 kts 228°
2026-05-01 11:02 7.11748 125.63646 100 ft 20 kts 231°
2026-05-01 11:02 7.11724 125.63540 100 ft 11 kts 243°
2026-05-01 11:02 7.11684 125.63547 100 ft 5 kts 118°
2026-05-01 11:02 7.11683 125.63564 100 ft 1 kts 84°
2026-05-01 11:03 7.11730 125.63620 99 ft 23 kts 49°
2026-05-01 11:03 7.12002 125.63931 102 ft 92 kts 49°
2026-05-01 11:03 7.12549 125.64573 101 ft 147 kts 49°
2026-05-01 11:03 7.13292 125.65441 388 ft 169 kts 49°
2026-05-01 11:04 7.14075 125.66347 1062 ft 172 kts 48°
2026-05-01 11:04 7.15044 125.66997 1781 ft 171 kts
2026-05-01 11:04 7.16257 125.66862 2231 ft 186 kts 349°
2026-05-01 11:04 7.17606 125.66609 2513 ft 209 kts 351°
2026-05-01 11:05 7.19110 125.66361 2820 ft 230 kts 352°
2026-05-01 11:05 7.20780 125.66100 3169 ft 255 kts 352°
2026-05-01 11:05 7.22580 125.65826 3837 ft 266 kts 352°
2026-05-01 11:05 7.24428 125.65549 4673 ft 269 kts 352°
2026-05-01 11:06 7.26295 125.65275 5485 ft 274 kts 353°
2026-05-01 11:06 7.28195 125.64999 6302 ft 278 kts 353°
2026-05-01 11:06 7.30104 125.64722 7104 ft 282 kts 353°
2026-05-01 11:07 7.34046 125.64151 8660 ft 290 kts 353°
2026-05-01 11:07 7.36058 125.63863 9390 ft 294 kts 353°
2026-05-01 11:07 7.38097 125.63572 10110 ft 299 kts 353°
2026-05-01 11:07 7.39515 125.63369 10305 ft 311 kts 353°
2026-05-01 11:08 7.41745 125.63043 10504 ft 333 kts 353°
2026-05-01 11:08 7.44051 125.62572 10982 ft 343 kts 343°
2026-05-01 11:08 7.48104 125.60096 12222 ft 355 kts 314°
2026-05-01 11:09 7.50178 125.57497 13082 ft 361 kts 308°
2026-05-01 11:09 7.51231 125.56148 13539 ft 363 kts 309°
2026-05-01 11:09 7.52801 125.54141 14157 ft 366 kts 309°
2026-05-01 11:10 7.55980 125.50073 15342 ft 373 kts 309°
2026-05-01 11:10 7.57585 125.48011 15905 ft 376 kts 309°
2026-05-01 11:10 7.59208 125.45929 16468 ft 380 kts 309°
2026-05-01 11:10 7.60850 125.43825 17070 ft 381 kts 309°
2026-05-01 11:11 7.62475 125.41737 17588 ft 386 kts 309°
2026-05-01 11:11 7.64155 125.39571 18122 ft 389 kts 309°
2026-05-01 11:11 7.65805 125.37441 18637 ft 392 kts 309°
2026-05-01 11:11 7.67489 125.35266 19140 ft 395 kts 309°
2026-05-01 11:12 7.69189 125.33073 19635 ft 399 kts 309°
2026-05-01 11:12 7.70907 125.30859 20114 ft 402 kts 309°
2026-05-01 11:12 7.72638 125.28629 20601 ft 406 kts 309°
2026-05-01 11:12 7.74384 125.26380 21063 ft 409 kts 309°
2026-05-01 11:13 7.76144 125.24111 21509 ft 412 kts 309°
2026-05-01 11:13 7.77917 125.21825 21952 ft 416 kts 309°
2026-05-01 11:13 7.79706 125.19516 22383 ft 419 kts 309°
2026-05-01 11:13 7.81507 125.17194 22813 ft 422 kts 309°
2026-05-01 11:14 7.83324 125.14851 23223 ft 426 kts 309°
2026-05-01 11:14 7.85155 125.12485 23635 ft 429 kts 309°
2026-05-01 11:14 7.87002 125.10106 24025 ft 432 kts 309°
2026-05-01 11:14 7.88859 125.07718 24394 ft 435 kts 309°
2026-05-01 11:15 7.90731 125.05305 24763 ft 437 kts 309°
2026-05-01 11:15 7.92606 125.02882 25132 ft 440 kts 309°
2026-05-01 11:15 7.94494 125.00438 25477 ft 442 kts 309°
2026-05-01 11:15 7.96428 124.98017 25823 ft 444 kts 314°
2026-05-01 11:16 7.98683 124.95884 26158 ft 445 kts 322°
2026-05-01 11:16 8.01102 124.93922 26488 ft 447 kts 322°
2026-05-01 11:16 8.03531 124.91949 26810 ft 449 kts 322°
2026-05-01 11:16 8.05968 124.89967 27132 ft 451 kts 322°
2026-05-01 11:17 8.08412 124.87974 27433 ft 453 kts 322°
2026-05-01 11:17 8.10864 124.85971 27724 ft 455 kts 322°
2026-05-01 11:17 8.13326 124.83959 27981 ft 456 kts 322°
2026-05-01 11:17 8.15797 124.81940 28241 ft 458 kts 322°
2026-05-01 11:18 8.18283 124.79911 28505 ft 461 kts 322°
2026-05-01 11:18 8.20784 124.77873 28780 ft 462 kts 322°
2026-05-01 11:18 8.23295 124.75826 29043 ft 464 kts 322°
2026-05-01 11:18 8.25815 124.73773 29304 ft 466 kts 322°
2026-05-01 11:19 8.28346 124.71713 29556 ft 468 kts 322°
2026-05-01 11:19 8.30884 124.69645 29811 ft 470 kts 322°
2026-05-01 11:19 8.33435 124.67566 30058 ft 472 kts 322°
2026-05-01 11:19 8.35995 124.65480 30295 ft 474 kts 322°
2026-05-01 11:20 8.38564 124.63387 30524 ft 475 kts 322°
2026-05-01 11:20 8.41160 124.61312 30742 ft 476 kts 326°
2026-05-01 11:20 8.43971 124.59543 30964 ft 476 kts 332°
2026-05-01 11:20 8.46856 124.57884 31176 ft 478 kts 331°
2026-05-01 11:21 8.49747 124.56218 31400 ft 479 kts 331°
2026-05-01 11:21 8.52636 124.54550 31706 ft 478 kts 331°
2026-05-01 11:21 8.55524 124.52881 32012 ft 477 kts 331°
2026-05-01 11:21 8.58399 124.51217 32315 ft 475 kts 331°
2026-05-01 11:22 8.61268 124.49556 32597 ft 474 kts 331°
2026-05-01 11:22 8.64088 124.47926 32862 ft 474 kts 331°
2026-05-01 11:22 8.66959 124.46269 33169 ft 473 kts 331°
2026-05-01 11:22 8.69814 124.44624 33443 ft 471 kts 331°
2026-05-01 11:23 8.72659 124.42984 33699 ft 472 kts 331°
2026-05-01 11:23 8.75507 124.41340 33971 ft 471 kts 331°
2026-05-01 11:23 8.78354 124.39697 34241 ft 471 kts 331°
2026-05-01 11:23 8.81203 124.38053 34501 ft 470 kts 331°
2026-05-01 11:24 8.84044 124.36412 34754 ft 470 kts 331°
2026-05-01 11:24 8.86881 124.34773 35001 ft 469 kts 331°
2026-05-01 11:24 8.92545 124.31498 35466 ft 468 kts 330°
2026-05-01 11:25 8.95371 124.29860 35689 ft 468 kts 330°
2026-05-01 11:25 9.01019 124.26590 35865 ft 465 kts 330°
2026-05-01 11:25 9.03813 124.24970 35852 ft 463 kts 330°
2026-05-01 11:26 9.12196 124.20109 35845 ft 463 kts 330°
2026-05-01 11:27 9.17784 124.16863 35848 ft 463 kts 330°
2026-05-01 11:27 9.23344 124.13632 35846 ft 463 kts 330°
2026-05-01 11:28 9.28934 124.10385 35854 ft 464 kts 330°
2026-05-01 11:28 9.34532 124.07137 35852 ft 464 kts 330°
2026-05-01 11:29 9.42938 124.02278 35864 ft 463 kts 330°
2026-05-01 11:30 9.51344 123.97436 35866 ft 463 kts 330°
2026-05-01 11:30 9.56939 123.94181 35860 ft 464 kts 330°
2026-05-01 11:31 9.62539 123.90910 35856 ft 464 kts 330°
2026-05-01 11:31 9.68140 123.87647 35863 ft 464 kts 330°
2026-05-01 11:32 9.73744 123.84395 35867 ft 464 kts 330°
2026-05-01 11:32 9.79357 123.81132 35867 ft 465 kts 330°
2026-05-01 11:33 9.84971 123.77872 35877 ft 465 kts 330°
2026-05-01 11:33 9.90583 123.74610 35885 ft 465 kts 330°
2026-05-01 11:34 9.96194 123.71329 35889 ft 465 kts 330°
2026-05-01 11:34 10.01804 123.68051 35889 ft 465 kts 330°
2026-05-01 11:35 10.07419 123.64779 35891 ft 465 kts 330°
2026-05-01 11:35 10.13031 123.61504 35894 ft 465 kts 330°
2026-05-01 11:36 10.18641 123.58233 35899 ft 464 kts 330°
2026-05-01 11:36 10.24245 123.54957 35901 ft 464 kts 330°
2026-05-01 11:37 10.29834 123.51682 35899 ft 464 kts 330°
2026-05-01 11:37 10.35391 123.48439 35898 ft 463 kts 330°
2026-05-01 11:38 10.41020 123.45165 35896 ft 463 kts 330°
2026-05-01 11:38 10.46614 123.41900 35894 ft 464 kts 330°
2026-05-01 11:39 10.52202 123.38638 35897 ft 463 kts 330°
2026-05-01 11:39 10.57791 123.35373 35896 ft 463 kts 330°
2026-05-01 11:40 10.63379 123.32102 35893 ft 463 kts 330°
2026-05-01 11:40 10.68955 123.28836 35892 ft 462 kts 330°
2026-05-01 11:41 10.74536 123.25579 35895 ft 462 kts 330°
2026-05-01 11:41 10.80109 123.22317 35899 ft 462 kts 329°
2026-05-01 11:42 10.85674 123.19046 35904 ft 462 kts 329°
2026-05-01 11:42 10.91200 123.15807 35905 ft 461 kts 329°
2026-05-01 11:43 10.96762 123.12543 35903 ft 461 kts 329°
2026-05-01 11:43 11.02313 123.09284 35900 ft 460 kts 329°
2026-05-01 11:44 11.10635 123.04397 35898 ft 460 kts 329°
2026-05-01 11:44 11.16173 123.01141 35895 ft 460 kts 329°
2026-05-01 11:45 11.21714 122.97880 35893 ft 459 kts 329°
2026-05-01 11:45 11.27252 122.94632 35893 ft 459 kts 329°
2026-05-01 11:46 11.32790 122.91375 35893 ft 460 kts 329°
2026-05-01 11:46 11.38326 122.88115 35894 ft 460 kts 329°
2026-05-01 11:47 11.43869 122.84855 35896 ft 460 kts 329°
2026-05-01 11:47 11.49403 122.81590 35898 ft 460 kts 329°
2026-05-01 11:48 11.54946 122.78321 35905 ft 460 kts 329°
2026-05-01 11:48 11.60482 122.75040 35912 ft 460 kts 328°
2026-05-01 11:49 11.65867 122.71533 35913 ft 459 kts 325°
2026-05-01 11:49 11.71147 122.67866 35908 ft 459 kts 324°
2026-05-01 11:50 11.75541 122.64834 35901 ft 458 kts 325°
2026-05-01 11:50 11.80854 122.61250 35896 ft 458 kts 326°
2026-05-01 11:51 11.86183 122.57685 35895 ft 458 kts 326°
2026-05-01 11:51 11.91511 122.54111 35895 ft 458 kts 326°
2026-05-01 11:52 11.96822 122.50518 35896 ft 458 kts 325°
2026-05-01 11:52 12.02134 122.46924 35898 ft 458 kts 325°
2026-05-01 11:53 12.07450 122.43337 35901 ft 458 kts 325°
2026-05-01 11:53 12.12759 122.39749 35898 ft 457 kts 325°
2026-05-01 11:54 12.18066 122.36158 35895 ft 457 kts 325°
2026-05-01 11:54 12.23369 122.32573 35893 ft 457 kts 325°
2026-05-01 11:55 12.28680 122.28987 35887 ft 457 kts 325°
2026-05-01 11:55 12.33986 122.25399 35885 ft 457 kts 325°
2026-05-01 11:56 12.39282 122.21789 35885 ft 458 kts 325°
2026-05-01 11:56 12.44546 122.18126 35885 ft 457 kts 324°
2026-05-01 11:57 12.49800 122.14451 35889 ft 457 kts 324°
2026-05-01 11:57 12.55060 122.10785 35887 ft 457 kts 324°
2026-05-01 11:58 12.60328 122.07126 35885 ft 457 kts 324°
2026-05-01 11:59 12.68233 122.01645 35885 ft 457 kts 324°
2026-05-01 11:59 12.73490 121.97984 35885 ft 457 kts 324°
2026-05-01 12:00 12.81375 121.92493 35883 ft 457 kts 324°
2026-05-01 12:01 12.89268 121.86994 35880 ft 457 kts 324°
2026-05-01 12:01 12.94491 121.83352 35881 ft 457 kts 324°
2026-05-01 12:02 12.99785 121.79661 35593 ft 457 kts 324°
2026-05-01 12:02 13.02413 121.77829 35339 ft 457 kts 324°
2026-05-01 12:02 13.05038 121.75998 35088 ft 458 kts 324°
2026-05-01 12:02 13.07635 121.74181 34847 ft 458 kts 324°
2026-05-01 12:03 13.09415 121.72934 34680 ft 458 kts 324°